Location: Unspecified
(48.5670°N, 0.0000°E)
Time: 13:33:22
(UTC+00:00)

A-11 Canister half - Visible Passes

Search period start: 22 October 2020 00:00
Search period end: 01 November 2020 00:00
Orbit: 1515 x 1685 km, 47.2° (Epoch: 21 October)

Date Brightness Start Highest point End Pass type
(mag) Time Alt. Az. Time Alt. Az. Time Alt. Az.
22 Oct 10.2 01:37:49 30° ESE 01:37:49 30° ESE 01:41:49 10° E visible
22 Oct 9.0 03:36:03 53° SW 03:36:49 55° SSW 03:45:50 10° SE visible
22 Oct 10.1 05:34:17 12° W 05:40:03 21° SW 05:46:23 10° S visible
23 Oct 10.6 01:16:38 20° E 01:16:38 20° E 01:18:55 10° E visible
23 Oct 9.1 03:14:53 55° S 03:14:53 55° S 03:23:02 10° SE visible
23 Oct 10.0 05:13:07 17° W 05:17:16 22° SW 05:23:54 10° S visible
23 Oct 10.7 20:28:48 10° SSW 20:30:37 16° SSW 20:30:37 16° SSW visible
24 Oct 11.0 00:55:32 12° E 00:55:32 12° E 00:56:02 10° E visible
24 Oct 9.4 02:53:46 45° SSE 02:53:46 45° SSE 03:00:13 10° SE visible
24 Oct 9.9 04:52:01 21° WSW 04:54:28 24° SW 05:01:23 10° S visible
24 Oct 10.4 20:06:05 10° SSW 20:09:40 22° S 20:09:40 22° S visible
25 Oct 9.9 02:32:44 33° SE 02:32:44 33° SE 02:37:24 10° SE visible
25 Oct 9.8 04:30:59 25° SW 04:31:40 25° SW 04:38:50 10° S visible
25 Oct 10.1 19:43:24 10° SSW 19:48:40 26° SSE 19:48:40 26° SSE visible
25 Oct 10.9 21:45:46 10° SW 21:46:56 14° SW 21:46:56 14° SW visible
26 Oct 10.4 02:11:45 22° SE 02:11:45 22° SE 02:14:34 10° SE visible
26 Oct 9.9 04:10:00 27° SW 04:10:00 27° SW 04:16:16 10° S visible
26 Oct 9.9 19:20:42 10° S 19:27:37 29° SSE 19:27:37 29° SSE visible
26 Oct 10.5 21:22:51 10° SW 21:25:51 22° SW 21:25:51 22° SW visible
27 Oct 10.9 01:50:50 14° SE 01:50:50 14° SE 01:51:44 10° SE visible
27 Oct 10.0 03:49:05 24° SSW 03:49:05 24° SSW 03:53:40 10° S visible
27 Oct 9.8 18:58:03 10° S 19:06:08 28° SE 19:06:28 28° SE visible
27 Oct 10.1 20:59:57 10° SW 21:04:42 32° SW 21:04:42 32° SW visible
28 Oct 10.3 03:28:11 20° S 03:28:11 20° S 03:31:03 10° SSE visible
28 Oct 9.9 18:35:25 10° S 18:43:18 27° SE 18:45:15 25° ESE visible
28 Oct 9.7 20:37:04 10° SW 20:43:29 42° SSW 20:43:29 42° SSW visible
28 Oct 11.2 22:41:38 10° W 22:41:42 10° W 22:41:42 10° W visible
29 Oct 10.7 03:07:18 14° S 03:07:18 14° S 03:08:25 10° SSE visible
29 Oct 10.0 18:12:49 10° S 18:20:27 25° SE 18:23:58 21° ESE visible
29 Oct 9.3 20:14:11 10° SW 20:22:11 52° S 20:22:11 52° S visible
29 Oct 10.9 22:18:41 10° W 22:20:24 17° W 22:20:24 17° W visible
30 Oct 10.2 17:50:14 10° S 17:57:38 24° SE 18:02:36 16° E visible
30 Oct 9.1 19:51:19 10° SW 20:00:49 57° SSE 20:00:49 57° SSE visible
30 Oct 10.5 21:55:42 10° W 21:59:02 24° W 21:59:02 24° W visible
31 Oct 10.2 17:27:42 10° S 17:34:48 22° SE 17:41:10 12° E visible
31 Oct 9.1 19:28:28 10° SW 19:38:14 55° SSE 19:39:23 53° SE visible
31 Oct 10.1 21:32:44 10° WSW 21:37:36 34° WSW 21:37:36 34° WSW visible
